Other Public Products
Issued by NWS Charleston, SC

Current Version | Previous Version | Graphics & Text | Print | Product List | Glossary On
Versions: 1 2 3 4 5 6 7 8 9 10 11 12 13 14 15 16 17 18 19 20 21 22 23 24 25 26 27 28 29 30 31 32 33 34 35 36 37 38 39 40 41 42 43 44 45 46 47 48 49 50
053
FPUS82 KCHS 241112
OPUCHS

TEST...KCHS/KSAV Gateway Observations...TEST
National Weather Service Charleston SC
600 AM EST SAT FEB 24 2018

NOTE: "fair" indicates few or no clouds below 12,000 feet with no
significant weather and/or obstructions to visibility.

SCZ050-WAZ558-NCZ071-TXZ119-213-PAZ071-DCZ001-FLZ074-172-MI076-
NYZ176-178-MAZ016-IL014-TNZ027-NJZ106-GAZ044-MD014-241200-

...Gateway Observations for Charleston International...

CITY           SKY/WX    TMP DP  RH WIND       PRES   REMARKS
Chas Airport   FAIR      63  62  97 CALM      30.25S FOG
Seattle        CLOUDY    36  34  92 S16       29.92F WCI  26
Charlotte      MOCLDY    56  56 100 S3        30.22S
Dallas DFW     LGT RAIN  48  47  96 E6        29.86F VSB 1/2
Dallas Love    FOG       48  48 100 SE3       29.90F VSB 1/2
Philladelphia  CLOUDY    44  43  96 NW3       30.20R FOG
Wash National  FOG       49  49 100 N6        30.18R VSB 1/4
Baltimore      FOG       45  45 100 SE5       30.16S VSB 1/16
Miami          LGT RAIN  73  68  84 E12       30.19S
Detroit        CLOUDY    38  31  76 N7        30.24S WCI  33
Newark         MOCLDY    42  41  96 W6        30.17R
Laguardia      FAIR      46  41  82 W8        30.16R
J F K          FAIR      42  42 100 W9        30.17R
Boston Logan   FAIR      44  40  85 W14       30.04R
Ft. Lauderdale FAIR      74  69  85 E16       30.19R
Chicago O`Hare CLOUDY    34  29  82 NE13      30.19F WCI  25
Chicago Midway CLOUDY    36  32  85 E13       30.19F WCI  27
Houston Bush   CLOUDY    73  70  90 S9        29.96S
Houston Hobby  MOCLDY    72  71  97 S8        29.96S
Nashville      CLOUDY    60  59  96 CALM      30.06F FOG
Atlanta        MOCLDY    64  60  87 S5        30.19F

$$

GAZ044-118-TXZ119-213-NCZ071-DCZ001-MDZ014-506-PAZ021-071-NJZ106-
NYZ176-178-MAZ106-OHZ011-021-055-MIZ076-KYZ091-ILZ014-INZ047-
MNZ060-ONZ431-241200-

...Gateway Observations for Savannah International...

CITY           SKY/WX    TMP DP  RH WIND       PRES   REMARKS
Savannah Arpt  FOG       60  60 100 CALM      30.25S VSB 1/8
Atlanta        MOCLDY    64  60  87 S5        30.19F
Charlotte      MOCLDY    56  56 100 S3        30.22S
Dallas DFW     LGT RAIN  48  47  96 E6        29.86F VSB 1/2
Houston Bush   CLOUDY    73  70  90 S9        29.96S
Wash National  FOG       49  49 100 N6        30.18R VSB 1/4
Wash Dulles    FOG       48  48 100 E3        30.15F VSB 1/4
Baltimore      FOG       45  45 100 SE5       30.16S VSB 1/16
Philadelphia   CLOUDY    44  43  96 NW3       30.20R FOG
Newark         MOCLDY    42  41  96 W6        30.17R
Laguardia      FAIR      46  41  82 W8        30.16R
J F K          FAIR      42  42 100 W9        30.17R
Boston         FAIR      44  40  85 W14       30.04R
Pittsburg      CLOUDY    48  45  89 N13       30.15S
Akron          LGT RAIN  43  39  86 N9        30.17F
Cleveland      LGT RAIN  40  37  89 NE12      30.23S WCI  33
Cincinnati     LGT RAIN  48  47  96 N8        30.14R FOG
Columbus       CLOUDY    46  47 100 N8        30.16R
Detroit        CLOUDY    38  31  76 N7        30.24S WCI  33
Chicago O`Hare CLOUDY    34  29  82 NE13      30.19F WCI  25
Minneapolis    FAIR       8   4  83 CALM      30.20F FOG
Indianapolis   RAIN      41  40  96 NE9       30.14R FOG
Toronto Canada MOCLDY    37  30  75 NW10      30.21R WCI  30

$$




USA.gov is the U.S. government's official web portal to all federal, state and local government web resources and services.